#timestamp,LO_Frequency,Hit,StdDev 
1664078415.1,286047000.4,N
1664078435.9,286047002.5,N
1664078455.7,286047002.6,N
1664078475.5,286047002.4,N
1664078495.4,286047002.2,N
1664078515.2,286047001.4,N
1664078535.1,286047001.4,N
1664078536.0,286047001.4,N
1664078555.8,286047001.7,N
1664078575.6,286047004.3,Y
1664078595.5,286047000.4,P
1664078615.3,286047000.6,N
1664078635.1,286047000.8,N
1664078655.9,286046999.3,N
1664078675.7,286046998.6,N
1664078695.6,286046998.2,N
1664078715.4,286047000.7,N
1664078735.2,286046998.3,N
1664078755.1,286046999.0,N
1664078756.0,286046999.0,N
1664078775.8,286046999.6,N
1664078795.6,286046996.9,N
1664078815.5,286046999.0,N
1664078835.3,286047000.7,N
1664078855.2,286047000.9,N
1664078875.9,286046998.5,N
1664078895.7,286046996.6,N
1664078915.6,286046999.0,N
1664078935.4,286046997.3,N
1664078955.2,286046996.9,N
1664078975.1,286046998.1,N
1664078976.0,286046998.1,N
1664078995.8,286047002.7,N
1664079015.7,286047001.9,N
1664079035.5,286047004.1,N
1664079055.3,286047005.2,N
1664079075.2,286047005.7,N
1664079095.0,286047005.8,N
1664079095.9,286047005.8,N
1664079115.8,286047003.2,N
1664079135.6,286047003.1,N
1664079155.4,286047005.8,N
1664079175.3,286047003.4,N
1664079195.1,286047001.4,N
1664079215.8,286046999.7,N
1664079235.7,286047002.6,N
1664079255.5,286047002.4,N
1664079275.4,286047002.0,N
1664079295.2,286047002.4,N
1664079315.0,286047002.4,N
1664079315.9,286047002.4,N
1664079335.8,286047002.0,N
1664079355.6,286047002.0,N
1664079375.5,286047001.9,N
1664079395.3,286047001.8,N
1664079415.1,286047002.2,N
1664079435.9,286047002.1,N
1664079455.7,286047000.0,N
1664079475.5,286046998.8,N
1664079495.4,286046996.7,N
1664079515.2,286046999.1,N
1664079535.1,286046997.4,N
1664079536.0,286046997.4,N
1664079555.8,286046997.4,N
1664079575.6,286046995.4,N
1664079595.5,286046995.8,N
1664079615.3,286046995.3,N
1664079635.1,286046995.9,N
1664079655.9,286046994.5,N
1664079675.7,286046994.8,N
1664079695.6,286046991.7,N
1664079715.4,286046992.6,N
1664079735.2,286046992.5,N
1664079755.1,286046990.4,N
1664079756.0,286046990.4,N
1664079775.8,286046992.9,N
1664079795.7,286046992.3,N
1664079815.5,286046992.6,N
1664079835.3,286046990.1,N
1664079855.2,286046990.4,N
1664079875.0,286046990.6,N
1664079875.9,286046990.6,N
1664079895.7,286046990.5,N
1664079915.6,286046990.8,N
1664079935.4,286046990.6,N
1664079955.3,286046990.1,N
1664079975.1,286046989.0,Y
1664079995.8,286046995.6,P
1664080015.7,286046994.0,P
1664080035.5,286046996.3,P
1664080055.4,286046993.9,Y
1664080075.2,286047000.8,P
1664080095.0,286046999.3,N
1664080095.9,286046999.3,N
1664080115.8,286046999.6,N
1664080135.6,286046998.4,N
1664080155.5,286046999.3,N
1664080175.3,286046998.3,N
1664080195.1,286046999.4,N
1664080215.9,286047000.6,N
1664080235.7,286046999.8,N
1664080255.6,286047004.4,N
1664080275.4,286047002.4,N
1664080295.2,286047002.4,N
1664080315.1,286047000.7,N
1664080316.0,286047000.7,N
1664080335.8,286047001.0,N
1664080355.6,286047002.5,N
1664080375.5,286047000.5,N
1664080395.3,286046998.4,N
1664080415.2,286046998.3,N
1664080435.9,286046999.6,N
1664080455.7,286046999.4,N
1664080475.6,286046999.6,N
1664080495.4,286046998.4,N
1664080515.3,286046999.7,N
1664080535.1,286046998.6,N
1664080555.8,286046999.1,N
1664080575.7,286046999.6,N
1664080595.5,286046997.4,N
1664080615.4,286046995.0,N
1664080635.2,286046995.0,N
1664080655.0,286046997.7,N
1664080655.9,286046997.7,N
1664080675.8,286046998.1,N
1664080695.6,286046999.5,N
1664080715.5,286046997.1,N
1664080735.3,286046997.7,N
1664080755.1,286046997.9,N
1664080775.9,286046995.5,N
1664080795.7,286046995.6,N
1664080815.5,286046994.9,N
1664080835.4,286046995.0,N
1664080855.2,286046997.3,N
1664080875.1,286046994.9,N
1664080876.0,286046994.9,N
1664080895.8,286046997.1,N
1664080915.6,286046997.1,N
1664080935.5,286046997.3,N
1664080955.3,286046995.5,N
1664080975.1,286046995.2,N
1664080995.9,286046995.4,N
1664081015.7,286046997.6,N
1664081035.6,286046998.0,N
1664081055.4,286046995.5,N
1664081075.2,286046993.6,Y
1664081095.1,286046996.7,P
1664081096.0,286046996.7,P
1664081115.8,286046997.7,P
1664081135.7,286046998.9,N
1664081155.5,286046999.5,N
1664081175.3,286046999.2,N
1664081195.2,286046996.9,N
1664081215.0,286046998.4,N
1664081215.9,286046998.4,N
1664081235.8,286046998.9,N
1664081255.6,286046999.9,N
1664081275.4,286046998.7,N
1664081295.3,286047001.0,N
1664081315.1,286046998.3,N
1664081335.8,286046998.2,N
1664081355.7,286046998.3,N
1664081375.5,286046999.0,N
1664081395.4,286046999.1,N
1664081415.2,286046997.6,N
1664081435.0,286046997.6,N
1664081435.9,286046997.6,N
1664081455.8,286046997.5,N
1664081475.6,286046997.5,N
1664081495.5,286046997.9,N
1664081515.3,286046997.1,N
1664081535.1,286046999.6,N
1664081555.9,286046997.5,N
1664081575.7,286046995.5,Y
1664081595.5,286046999.6,P
1664081615.4,286046998.8,N
1664081635.2,286046999.2,N
1664081655.1,286046997.1,Y
1664081656.0,286046997.1,P
1664081675.8,286046998.8,N
1664081695.6,286046999.0,N
1664081715.5,286046999.2,N
1664081735.3,286046999.1,N
1664081755.2,286046998.1,N
1664081775.9,286046998.7,N
1664081795.7,286047001.1,N
1664081815.6,286046998.6,N
1664081835.4,286047000.8,N
1664081855.2,286046998.9,N
1664081875.1,286047000.8,N
1664081876.0,286047000.8,N
1664081895.8,286046999.1,N
1664081915.7,286046998.7,N
1664081935.2,286046998.2,N
1664081955.1,286046998.6,N
1664081956.0,286046998.6,N
1664081975.8,286047000.9,N
1664081995.6,286047000.8,N
